Retour au catalogue

STARLINK-2703

ActifCommunicationsVLEO
NORAD 48452·PAYLOAD·🇺🇸 United States

Lancé May 9, 2021 depuis Cape Canaveral Space Force Station

Loading…

Prochains Passages (prochaines 24 heures)

TLE

FraisSource: CelesTrak SupGP

Époque: Sep 14, 2026, 12:55 UTC

1 48452C 21040AA  26257.53868056 -.00019034  00000+0 -61251-3 0  2576
2 48452  53.1602  19.2693 0000994  65.3252 187.9714 15.31690002    12

Suivez STARLINK-2703 en temps réel avec AllMySat

Download on the App Store